{"data":{"norad_id":64955,"intl_designator":"2025-158Z","name":"STARLINK-34732","alt_names":[],"object_type":"PAYLOAD","status":"ACTIVE","operator":null,"country":"US","launch_date":"2025-07-27","launch_site_code":"AFWTR","launch_vehicle":null,"mission":null,"orbit_class":"UNKNOWN","rcs_meters":null,"size_class":null,"mass_kg":null,"dimensions":null,"purposes":["comms"],"wikipedia_slug":null,"has_3d_model":false,"image_url":null,"decayed_at":null,"tle_current":{"epoch":"2026-05-25T02:17:20.261760Z","epoch_age_seconds":63864,"freshness":"FRESH","line1":"1 64955U 25158Z   26145.09537340  .00003333  00000+0  23488-3 0  9998","line2":"2 64955  97.4540   9.0375 0002240  85.0286 275.1197 15.05657206 46853","mean_motion":15.05657206,"eccentricity":0.000224,"inclination_deg":97.454,"raan_deg":9.0375,"arg_perigee_deg":85.0286,"mean_anomaly_deg":275.1197,"bstar":0.00023488,"rev_number":4685,"period_min":95.63929918853,"perigee_km":547.93726220138,"apogee_km":551.04083867198,"semimajor_km":6927.6260504367,"source":"CELESTRAK","updated_at":"2026-05-25T13:38:20.636474Z"}}}